User: anonymous   Login
Location: Roanoke
(37.2710°N, 79.9420°W)
Time: 23:08:44
(UTC-05:00)
Language:

Cosmos 1441 Rocket - Orbit

View from above orbital plane
View from above orbital plane
View from above satellite
View from above satellite

Ground track
Ground track

The orbit data is extracted from the following two-line orbital elements,

1 13819U 83010B   17328.54576219 +.00000667 +00000-0 +33765-4 0  9991
2 13819 081.1147 332.4524 0032988 161.8602 198.3812 15.15142679897718
Epoch (UTC): 24 November 2017 13:05:53
Eccentricity: 0.0032988
inclination: 81.1147°
perigee height: 498 km
apogee height: 543 km
right ascension of ascending node: 332.4524°
argument of perigee: 161.8602°
revolutions per day: 15.15142679
mean anomaly at epoch: 198.3812°
orbit number at epoch: 89771

The dashed part of the orbit path shows where the satellite is in the earth's shadow,  

DLR